TimeEDT,TemperatureF,Dew PointF,Humidity,Sea Level PressureIn,VisibilityMPH,Wind Direction,Wind SpeedMPH,Gust SpeedMPH,PrecipitationIn,Events,Conditions,WindDirDegrees,DateUTC
12:15 AM,69.3,67.8,95,30.07,7.0,South,6.9,-,N/A,,Scattered Clouds,180,2013-05-21 04:15:00
12:35 AM,69.3,68.0,96,30.07,7.0,South,6.9,-,N/A,,Clear,180,2013-05-21 04:35:00
12:55 AM,69.3,68.0,96,30.06,7.0,South,8.1,-,N/A,,Clear,180,2013-05-21 04:55:00
1:15 AM,69.4,68.0,95,30.06,10.0,South,9.2,-,N/A,,Scattered Clouds,180,2013-05-21 05:15:00
1:35 AM,69.4,68.0,95,30.05,10.0,South,6.9,-,N/A,,Scattered Clouds,170,2013-05-21 05:35:00
1:55 AM,69.3,68.0,96,30.05,10.0,South,6.9,-,N/A,,Scattered Clouds,170,2013-05-21 05:55:00
2:15 AM,69.1,67.6,95,30.04,7.0,SSE,5.8,-,N/A,,Scattered Clouds,160,2013-05-21 06:15:00
2:35 AM,69.1,68.0,96,30.05,7.0,South,3.5,-,N/A,,Mostly Cloudy,180,2013-05-21 06:35:00
2:55 AM,69.3,68.0,96,30.05,7.0,SSW,3.5,-,N/A,,Mostly Cloudy,200,2013-05-21 06:55:00
3:15 AM,69.3,68.0,96,30.05,7.0,South,3.5,-,N/A,,Mostly Cloudy,190,2013-05-21 07:15:00
3:35 AM,69.4,68.2,96,30.05,7.0,South,4.6,-,N/A,,Scattered Clouds,180,2013-05-21 07:35:00
3:55 AM,69.4,68.2,96,30.04,7.0,South,4.6,-,N/A,,Clear,180,2013-05-21 07:55:00
4:15 AM,69.4,68.2,96,30.04,7.0,SSW,3.5,-,N/A,,Clear,200,2013-05-21 08:15:00
4:35 AM,69.4,68.2,96,30.04,7.0,South,4.6,-,N/A,,Clear,180,2013-05-21 08:35:00
4:55 AM,69.3,68.0,96,30.04,7.0,South,3.5,-,N/A,,Scattered Clouds,170,2013-05-21 08:55:00
5:15 AM,68.9,67.6,96,30.04,7.0,Calm,Calm,-,N/A,,Scattered Clouds,0,2013-05-21 09:15:00
5:35 AM,68.5,67.5,96,30.05,7.0,Calm,Calm,-,N/A,,Scattered Clouds,0,2013-05-21 09:35:00
5:55 AM,68.5,67.5,96,30.07,5.0,Calm,Calm,-,N/A,,Scattered Clouds,0,2013-05-21 09:55:00
6:15 AM,68.5,67.6,97,30.07,4.0,Calm,Calm,-,N/A,,Mostly Cloudy,0,2013-05-21 10:15:00
6:35 AM,69.3,68.4,97,30.08,4.0,Calm,Calm,-,0.01,Rain,Light Rain,0,2013-05-21 10:35:00
6:55 AM,69.4,68.4,96,30.08,4.0,SW,9.2,-,0.05,Rain,Light Rain,220,2013-05-21 10:55:00
6:56 AM,69.8,68.0,94,30.08,4.0,SW,8.1,-,N/A,Rain,Light Rain,230,2013-05-21 10:56:00
7:56 AM,69.8,68.0,94,30.07,10.0,South,4.6,-,N/A,,Clear,180,2013-05-21 11:56:00
8:56 AM,73.4,69.8,88,30.08,10.0,SSW,6.9,-,N/A,,Scattered Clouds,210,2013-05-21 12:56:00
9:56 AM,73.4,69.8,88,30.08,7.0,SW,6.9,-,N/A,,Mostly Cloudy,230,2013-05-21 13:56:00
10:56 AM,77.0,68.0,74,30.08,7.0,SW,8.1,-,N/A,,Scattered Clouds,220,2013-05-21 14:56:00
11:56 AM,80.6,68.0,65,30.07,7.0,SW,6.9,-,N/A,,Scattered Clouds,220,2013-05-21 15:56:00
12:56 PM,82.4,66.2,58,30.05,10.0,South,10.4,16.1,N/A,,Scattered Clouds,190,2013-05-21 16:56:00
1:56 PM,84.2,66.2,55,30.03,10.0,South,10.4,16.1,N/A,,Scattered Clouds,190,2013-05-21 17:56:00
2:56 PM,77.0,69.8,78,30.02,7.0,South,8.1,-,N/A,Rain,Light Rain,180,2013-05-21 18:56:00
3:56 PM,80.6,68.0,65,30.00,7.0,South,9.2,-,N/A,,Mostly Cloudy,190,2013-05-21 19:56:00
4:56 PM,75.2,68.0,78,30.02,7.0,West,6.9,-,N/A,,Mostly Cloudy,270,2013-05-21 20:56:00
5:56 PM,73.4,69.8,88,30.01,10.0,WSW,4.6,-,N/A,,Scattered Clouds,250,2013-05-21 21:56:00
6:56 PM,73.4,69.8,88,30.00,10.0,South,5.8,-,N/A,,Clear,180,2013-05-21 22:56:00
7:56 PM,75.2,68.0,78,29.99,10.0,South,6.9,-,N/A,,Clear,170,2013-05-21 23:56:00
8:56 PM,73.4,69.8,88,30.00,10.0,South,8.1,-,N/A,,Clear,170,2013-05-22 00:56:00
9:15 PM,72.5,68.9,88,30.00,10.0,SSE,8.1,-,N/A,,Clear,160,2013-05-22 01:15:00
9:35 PM,72.0,68.5,89,30.01,10.0,South,6.9,-,N/A,,Clear,170,2013-05-22 01:35:00
9:55 PM,71.4,68.0,89,30.01,10.0,South,6.9,-,N/A,,Clear,170,2013-05-22 01:55:00
10:15 PM,71.1,68.0,90,30.01,10.0,South,6.9,-,N/A,,Clear,180,2013-05-22 02:15:00
10:35 PM,70.9,67.6,89,30.02,10.0,South,6.9,-,N/A,,Clear,180,2013-05-22 02:35:00
10:55 PM,70.7,67.5,89,30.02,10.0,South,8.1,-,N/A,,Clear,180,2013-05-22 02:55:00
11:15 PM,70.2,67.5,91,30.03,10.0,South,8.1,-,N/A,,Clear,190,2013-05-22 03:15:00
11:35 PM,69.8,67.5,92,30.03,10.0,South,6.9,-,N/A,,Clear,190,2013-05-22 03:35:00
11:55 PM,69.8,67.6,93,30.03,10.0,South,10.4,-,N/A,,Clear,190,2013-05-22 03:55:00